Regional Weather Roundup
Issued by NWS

Home | Current Version | Previous Version | Text Only | Print | Product List | Glossary Off
Versions: 1 2 3 4 5 6 7 8 9 10 11 12 13 14 15 16 17 18 19 20 21 22 23 24 25 26 27 28 29 30 31 32 33 34 35 36 37 38 39 40 41 42 43 44 45 46 47 48

000
ASUS45 KCYS 280810
RWRWY

WYOMING REGIONAL WEATHER ROUNDUP
NATIONAL WEATHER SERVICE CHEYENNE WY
100 AM MST FRI NOV 28 2014

NOTE:  "FAIR" INDICATES FEW OR NO CLOUDS BELOW 12,000 FEET
WITH NO SIGNIFICANT WEATHER AND/OR OBSTRUCTIONS TO VISIBILITY.

WYZ001-280900-
YELLOWSTONE NATIONAL PARK

CITY           SKY/WX    TMP DP  RH WIND       PRES   REMARKS
LK YELLOWSTONE   N/A     35  26  69 CALM      30.05F
W YELLOWSTONE  NOT AVBL

$$
WYZ002>013-054>058-071-098>099-280900-
NORTHERN WYOMING

CITY           SKY/WX    TMP DP  RH WIND       PRES   REMARKS
JACKSON        CLOUDY    39  28  65 SW7       30.06F WCI  34
CODY           MOCLDY    54  23  30 W16G25    29.84R
GREYBULL       MOCLDY    31  26  82 SE9       29.86F WCI  23
WORLAND        MOCLDY    25  22  88 CALM      29.86F
SHERIDAN       CLOUDY    51  26  37 W17       29.73F
BUFFALO        CLOUDY    52  24  33 SW13      29.79F
GILLETTE       MOCLDY    46  29  51 SW24      29.76F
HULETT           N/A    N/A N/A N/A MISG        N/A
NEWCASTLE      FAIR      30  27  86 CALM      29.86F

$$
WYZ014>020-022>026-101>103-280900-
CENTRAL WYOMING

CITY           SKY/WX    TMP DP  RH WIND       PRES   REMARKS
BIG PINEY      PTCLDY   N/A N/A N/A E8        30.13F
PINEDALE       MOSUNNY   18  16  93 NW6       30.14F WCI   9
DUBOIS         FAIR      37  21  52 NW14      30.04S WCI  29
LANDER         MOCLDY    54  17  23 W23G33    29.92F
RIVERTON       MOCLDY    36  25  64 S3        29.95F
CASPER         CLEAR     41  23  48 SW15      29.96F
DOUGLAS        CLEAR     47  22  37 NW6       29.91F

$$
WYZ021-027>030-104>119-280900-
SOUTHERN WYOMING

CITY           SKY/WX    TMP DP  RH WIND       PRES   REMARKS
EVANSTON       PTCLDY    39  18  42 SW13      30.16F WCI  31
FORT BRIDGER   FAIR      41  20  43 W14       30.16F
ROCK SPRINGS   PTCLDY    40  19  43 SW15      30.12F WCI  32
DIXON          FAIR      44  17  34 S10       30.19S
RAWLINS        PTCLDY    41  19  41 SW10G21   30.10F
SARATOGA       FAIR      45  19  36 S9G18     30.15F
LARAMIE        PTCLDY    42  18  37 SW17      30.11F
CHEYENNE       MOCLDY    52  17  25 W18G29    30.01S
TORRINGTON     CLEAR     54  22  28 W3        29.89F
PINE BLUFFS    FAIR      45  23  42 SW9       30.00F

$$


USA.gov is the U.S. government's official web portal to all federal, state and local government web resources and services.